Find Starlink 33614

NORAD ID: 63372 Int'l Des: 2025-063 Owner: SPXS Country: US Constellation: starlink operational
LEOCIRCULAR

Current View

Loading 3D Globe...

About Starlink 33614

Starlink 33614 (NORAD 63372) is a starlink constellation satellite (v2 mini) launched Mar 26, 2025 by SPXS of US. It operates in LEO, CIRCULAR orbit with a mass of 575.00 kg.

About Starlink 33614

Description loading...

Upcoming Passes

Passes for default location (London). Set your location on the main map for personalized predictions.

Altitude History

Loading altitude history...

Two-Line Element Set

1 63372U 25063K 26167.67117807 .00019728 00000-0 59340-3 0 9997
2 63372 53.1610 309.8871 0000997 81.4520 278.6596 15.34403993 69953
Epoch: Jun 16, 2026 • Age: 23 hours

Current Status

Altitude 481.8 km
Velocity 7.62 km/s
Sub-Earth Point -53.30°S, 83.65°E
Launch Date Mar 26, 2025
Age 1.2 years
Type internet

Technical Details

Classification Payload
Mass 575.00 kg
Dry Mass 530.00 kg
Total Mass 575.00 kg
Length 0.30 m
Diameter 4.10 m
Span 29.00 m
Shape Box + pan
Manufacturer SPXS
Bus Type Starlink V2MO
Phase Status In Orbit
Owner/State SPXS/US

Most Searched